7 * 24
多渠道服务支持
ORBCOMM FM15 是一颗由 ORBCOMM 公司运营的低轨(LEO)卫星,属于其机器对机器(M2M)通信网络的一部分。该卫星主要用于提供全球范围内的物联网(IoT)数据传输服务,适用于物流、运输、环境监测等领域。FM15 运行在 L 波段,支持双向通信,具备低功耗、广覆盖的特点,能够连接偏远地区的设备。该卫星是 ORBCOMM 第二代卫星星座的重要成员,旨在提升数据传输效率和系统可靠性。
| 数据来源 | 国际轨道数据 |
| 星历时间: | 2025-11-08T18:50:16+0800 1天前 查看轨道信息 |
| 半长轴: | 7139.916km |
| 偏心率: | 0.0005152 |
| 轨道倾角: | 44.996° |
| 近地点辐角 | 317.783° |
| 升交点赤经 | 213.119° |
| 平近点角 | 42.263° |
| 近地点: | 758.102km |
| 远地点: | 765.46km |
| 周期: | 100.069分钟 |
| 每日圈数: | 14.390079 |